Regional Weather Roundup
Issued by NWS

Home | Current Version | Previous Version | Graphics & Text | Print | Product List | Glossary On
Versions: 1 2 3 4 5 6 7 8 9 10 11 12 13 14 15 16 17 18 19 20 21 22 23 24 25 26 27 28 29 30 31 32 33 34 35 36 37 38 39 40 41 42 43 44 45 46 47 48 49 50
000
ASUS43 KMKX 231200
RWRWI

WISCONSIN REGIONAL WEATHER ROUNDUP
NATIONAL WEATHER SERVICE MILWAUKEE/SULLIVAN WI
700 AM CDT MON APR 23 2018

NOTE: "FAIR" INDICATES FEW OR NO CLOUDS BELOW 12,000 FEET WITH NO
SIGNIFICANT WEATHER AND/OR OBSTRUCTIONS TO VISIBILITY.

WIZ001-002-006>008-014>016-023>028-231300-
NORTHWEST WISCONSIN

CITY           SKY/WX    TMP DP  RH WIND       PRES   REMARKS
SUPERIOR ARPT  FAIR      30  27  86 CALM      30.24S
6HR MIN TEMP:  27; 6HR MAX TEMP:  32;

ASHLAND        FAIR      39  23  52 SW3       30.25S
6HR MIN TEMP:  33; 6HR MAX TEMP:  40;

HAYWARD        FAIR      29  25  85 CALM      30.26S
6HR MIN TEMP:  27; 6HR MAX TEMP:  31;

SIREN          FAIR      32  28  86 CALM      30.26S
CUMBERLAND     FAIR      32  25  74 CALM      30.26S
RICE LAKE      FAIR      31  29  92 CALM      30.28S
CHETEK         FAIR      29  26  89 CALM      30.27S
LADYSMITH      FAIR      33  26  77 CALM      30.30R
6HR MIN TEMP:  31; 6HR MAX TEMP:  39;

EAU CLAIRE     NOT AVBL
MENOMONIE      FAIR      33  30  88 CALM      30.27S
6HR MIN TEMP:  33; 6HR MAX TEMP:  45;

NEW RICHMOND   CLOUDY    35  30  82 CALM      30.26R
OSCEOLA        FAIR      32  30  92 CALM      30.29R
$$

WIZ003>005-009-010-017-018-231300-
NORTH CENTRAL WISCONSIN

CITY           SKY/WX    TMP DP  RH WIND       PRES   REMARKS
MANITOWISH WTR FAIR      26  26  98 CALM      30.27S
ARBOR VITAE    FAIR      32  24  72 CALM      30.27S
WOODRUFF       FAIR      32  24  72 CALM      30.27S
RHINELANDER    FAIR      30  23  75 CALM      30.29R
6HR MIN TEMP:  27; 6HR MAX TEMP:  36;

EAGLE RIVER    FAIR      27  21  80 CALM      30.28S
6HR MIN TEMP:  25; 6HR MAX TEMP:  33;

LAND O LAKES   FAIR      27  22  81 CALM      30.30R
6HR MIN TEMP:  24; 6HR MAX TEMP:  30;

PHILLIPS       FAIR      29  26  91 CALM      30.27S
6HR MIN TEMP:  27; 6HR MAX TEMP:  33;

TOMAHAWK       FAIR      25  21  85 CALM      30.29S
MEDFORD        FAIR      31  25  77 CALM      30.27S
MERRILL          N/A     28  24  83 CALM      30.30S
6HR MIN TEMP:  25; 6HR MAX TEMP:  29;

$$

WIZ029-030-035-036-043>047-231300-
CENTRAL WISCONSIN

CITY           SKY/WX    TMP DP  RH WIND       PRES   REMARKS
WAUSAU         FAIR      32  28  85 CALM      30.28R
6HR MIN TEMP:  30; 6HR MAX TEMP:  35;

MOSINEE        NOT AVBL
MARSHFIELD     FAIR      35  26  69 NE3       30.28R
6HR MIN TEMP:  33; 6HR MAX TEMP:  43;

STEVENS POINT  FAIR      26  23  89 CALM      30.29S
WAUPACA        FAIR      30  27  89 CALM      30.30R
6HR MIN TEMP:  29; 6HR MAX TEMP:  34;

WAUTOMA        FAIR      31  28  89 CALM      30.30R
6HR MIN TEMP:  26; 6HR MAX TEMP:  32;

WISC RAPIDS    FAIR      32  25  75 N3        30.30R
6HR MIN TEMP:  30; 6HR MAX TEMP:  38;

CAMP DOUGLAS   NOT AVBL
$$

WIZ011>013-019>022-031-037>040-048>050-231300-
NORTHEAST WISCONSIN

CITY           SKY/WX    TMP DP  RH WIND       PRES   REMARKS
ANTIGO         FAIR      32  28  86 CALM      30.29S
SHAWANO        FAIR      31  28  88 CALM      30.31R
6HR MIN TEMP:  29; 6HR MAX TEMP:  33;

OCONTO         FAIR      27  25  91 CALM      30.31R
STURGEON BAY   FAIR      40  25  55 CALM      30.32R
6HR MIN TEMP:  35; 6HR MAX TEMP:  45;

GREEN BAY      FAIR      35  29  78 CALM      30.30R
6HR MIN TEMP:  31; 6HR MAX TEMP:  39;

MANITOWOC      FAIR      35  29  78 CALM      30.32R
6HR MIN TEMP:  31; 6HR MAX TEMP:  36;

APPLETON       MOSUNNY   37  18  44 NE5       30.27S WCI  34
CLINTONVILLE   FAIR      29  25  86 CALM      30.30R
6HR MIN TEMP:  28; 6HR MAX TEMP:  33;

OSHKOSH        FAIR      38  28  67 CALM      30.29R
6HR MIN TEMP:  34; 6HR MAX TEMP:  41;

$$

WIZ032>034-041-042-053>061-231300-
SOUTHWEST WISCONSIN

CITY           SKY/WX    TMP DP  RH WIND       PRES   REMARKS
LA CROSSE      FAIR      40  32  73 CALM      30.28R
6HR MIN TEMP:  36; 6HR MAX TEMP:  45;

SPARTA         FAIR      27  24  87 CALM      30.29R
VIROQUA        FAIR      39  28  63 E5        30.26R
BOSCOBEL       FAIR      34  31  88 CALM      30.28R FOG
6HR MIN TEMP:  31; 6HR MAX TEMP:  38;

PRAIRIE DU CHI FAIR      39  33  76 E3        30.26S
PLATTEVILLE    FAIR      41  28  61 E9        30.24R
$$

WIZ056-057-062-063-064-067-068-231300-
SOUTH CENTRAL WISCONSIN

CITY           SKY/WX    TMP DP  RH WIND       PRES   REMARKS
REEDSBURG      FAIR      32  32  99 CALM      30.28R
6HR MIN TEMP:  32; 6HR MAX TEMP:  39;

BARABOO/DELLS  FAIR      30  26  84 CALM      30.27S
LONE ROCK      NOT AVBL
MINERAL POINT  FAIR      43  27  52 E8        30.24S
MADISON        MOCLDY    35  28  75 N5        30.27R WCI  31
6HR MIN TEMP:  32; 6HR MAX TEMP:  44;

MIDDLETON      FAIR      34  31  87 CALM      30.27S
WATERTOWN      FAIR      33  27  79 CALM      30.27R
MONROE         FAIR      37  27  65 N6        30.24R WCI  33
JANESVILLE     MOCLDY    39  28  65 NE6       30.25R WCI  35
$$

WIZ051-052-058>065-066-070>072-231300-
SOUTHEAST WISCONSIN

CITY           SKY/WX    TMP DP  RH WIND       PRES   REMARKS
MILWAUKEE      PTSUNNY   41  32  70 CALM      30.28R
6HR MIN TEMP:  38; 6HR MAX TEMP:  42;

WAUKESHA       SUNNY     36  25  64 CALM      30.28S
MILWAUKEE/TIMM FAIR      34  25  69 N3        30.29R
RACINE         FAIR      42  34  73 N9        30.27F
6HR MIN TEMP:  35; 6HR MAX TEMP:  42;

BURLINGTON     FAIR      35  27  72 CALM      30.26R
KENOSHA        FAIR      41  31  67 NE7       30.25S
6HR MIN TEMP:  36; 6HR MAX TEMP:  41;

FOND DU LAC    FAIR      34  28  79 CALM      30.29R
6HR MIN TEMP:  32; 6HR MAX TEMP:  40;

SHEBOYGAN      FAIR      32  30  92 CALM      30.30R
6HR MIN TEMP:  30; 6HR MAX TEMP:  37;

WEST BEND      FAIR      32  30  93 CALM      30.29R
JUNEAU         FAIR      38  24  56 CALM      30.28S
$$

LSZ147-162-231300-
LAKE SUPERIOR

STATION/POSITION TIME  TEMP    WIND        PRES    WAVE
                       AIR SEA DIR/SP/G            HT/PER
                 (UTC) (F)     (DEG/KT/KT) (MB)    (FT/S)
DEVILS ISLAND    1100   42     230/  7/  8 1024.5R
SAXON HARBOR     1130   45     190/  6/  9 1023.4S
$$

LMZ867-665-643>646-231300-
LAKE MICHIGAN

STATION/POSITION TIME  TEMP    WIND        PRES    WAVE
                       AIR SEA DIR/SP/G            HT/PER
                 (UTC) (F)     (DEG/KT/KT) (MB)    (FT/S)
NORTHPORT PIER   1140   36                 1026.4R
KEWAUNEE LAKESHO 1124   30     300/  3/  4 1025.5
SHEBOYGAN LAKESH 1100   40      10/  6/  7 1026.2R
PORT WASHINGTON  1130   37     290/  2/  4 1026.8R
MILWAUKEE LAKESH 1130   42     340/  3/  4   N/A
KENOSHA   LAKESH 1100   43                 1024.4
$$

TC  - TEMPERATURE IN CELSIUS
VSB - VISIBILITY IN STATUTE MILES
WCI - WIND CHILL INDEX
HX  - HEAT INDEX





USA.gov is the U.S. government's official web portal to all federal, state and local government web resources and services.